Regional Weather Roundup
Issued by NWS

Home | Current Version | Previous Version | Text Only | Print | Product List | Glossary Off
Versions: 1 2 3 4 5 6 7 8 9 10 11 12 13 14 15 16 17 18 19 20 21 22 23 24 25 26 27 28 29 30 31 32 33 34 35 36 37 38 39 40 41 42 43 44 45 46 47 48 49 50

323
ASUS45 KABQ 290310
RWRNM
NEW MEXICO REGIONAL WEATHER ROUNDUP
NATIONAL WEATHER SERVICE ALBUQUERQUE NM
900 PM MDT THU APR 28 2016

NOTE: "FAIR" MEANS FEW OR NO CLOUDS BELOW 12,000 FEET AGL WITH NO
       SIGNIFICANT WEATHER OR OBSTRUCTIONS TO VISION.

      THIS PRODUCT IS RELEASED AS TWO VERSIONS.  ONE VERSION NEAR
      THE TOP OF THE HOUR CONTAINING PRELIMINARY DATA FROM ALBUQUERQUE
      AND OTHER STATIONS.  A FINAL VERSION WITH ADDITIONAL DATA IS
      ISSUED ABOUT 10 MINUTES AFTER THE HOUR.

NMZ501-503-504-510>518-290400-
NORTHWEST PLATEAU/NORTHCENTRAL MOUNTAINS

CITY           SKY/WX    TMP DP  RH WIND       PRES   REMARKS
FARMINGTON     MOCLDY    52  24  33 N9        29.77R
LOS ALAMOS     MOCLDY    58   8  13 S15G25    29.80S
SANTA FE       FAIR      60   8  12 S13       29.76R
TAOS           CLOUDY    50  27  40 SE23      29.83R
ANGEL FIRE     DRIZZLE   40  33  76 CALM      29.93S

$$
NMZ402-403-502-505>509-290400-
WESTCENTRAL MOUNTAINS/SOUTHWEST MOUNTAINS

CITY           SKY/WX    TMP DP  RH WIND       PRES   REMARKS
GALLUP         FAIR      49  10  20 W15       29.82R
GRANTS         CLOUDY    53  17  23 NW12G17   29.82R
SILVER CITY      N/A     57  25  28 NW20G29   29.80R

$$
NMZ407-409-411-412-290400-
SOUTHERN DESERTS

CITY           SKY/WX    TMP DP  RH WIND       PRES   REMARKS
LORDSBURG      FAIR      61  28  29 W16G22    29.76R
DEMING         FAIR      67  14  13 W12       29.73R
LAS CRUCES     FAIR      68  19  15 SW13      29.73S
ALAMOGORDO     FAIR      63  19  19 S8        29.71R
T OR C         FAIR      68  12  11 S18G29    29.70R

$$
NMZ519>523-290400-
CENTRAL VALLEYS/CENTRAL HIGHLANDS

CITY           SKY/WX    TMP DP  RH WIND       PRES   REMARKS
ALBUQUERQUE    MOCLDY    66   6   9 S10       29.73R
DOUBLE EAGLE   MOCLDY    59   9  13 SW7       29.75R
MORIARTY ARPT  FAIR      49   4  15 SE8       29.81R
CLINES CORNERS FAIR      47   6  18 S12       29.84R
BELEN          FAIR      64   8  11 SW8       29.72R
SOCORRO        FAIR      67  11  11 S16       29.70R

$$
NMZ524>526-539-540-290400-
SOUTHCENTRAL MOUNTAINS

CITY           SKY/WX    TMP DP  RH WIND       PRES   REMARKS
RUIDOSO          N/A     55  14  19 S7        29.87S

$$
NMZ527>531-290400-
NORTHEAST HIGHLANDS/NORTHEAST PLAINS

CITY           SKY/WX    TMP DP  RH WIND       PRES   REMARKS
LAS VEGAS      MOCLDY    49  38  65 NE17G30   29.88R
RATON          CLOUDY    38  34  85 N13       29.92R WCI  30
CLAYTON        CLOUDY    51  41  68 E28G33    29.87F

$$
NMZ532>537-290400-
EASTCENTRAL PLAINS

CITY           SKY/WX    TMP DP  RH WIND       PRES   REMARKS
TUCUMCARI      FAIR      57  47  69 NE20G32   29.75R
CANNON AFB     NOT AVBL
CLOVIS AIRPORT FAIR      61  50  67 E14G20    29.77R

$$
NMZ028-029-538-290400-
SOUTHEAST PLAINS

CITY           SKY/WX    TMP DP  RH WIND       PRES   REMARKS
ROSWELL        FAIR      70  14  11 W9        29.66F
ARTESIA        FAIR      68  16  13 CALM      29.67S
CARLSBAD       FAIR      66  16  14 NE6       29.64R
HOBBS          FAIR      73  41  31 SE15      29.71R


$$




USA.gov is the U.S. government's official web portal to all federal, state and local government web resources and services.